This demonstration page uses our WeatherBlox Daily Observations layout. Learn more.

Hourly Observations for January 4, 2015

Temp ( °F °C ) Dew Point ( °F °C ) Humidity (%) Winds ( mph kmh ) Pressure ( in mb ) Visibility ( mi km ) Precip ( " mm )
12:15 am 00:15 Cloudy with Haze 8 -13.6 2 -16.5 79 79 NNW 18 30 30.5 1033 2.5 4.02335 0 0
12:35 am 00:35 Cloudy with Haze 8 -13.6 2 -16.6 78 78 NNW 22 35 30.53 1034 4 6.43736 0 0
12:55 am 00:55 Windy with Snow Likely 7 -13.7 2 -16.7 78 78 NNW 22 35 30.53 1034 3 4.82802 0 0
1:15 am 01:15 Cloudy with Light Snow 7 -14.1 0 -17.8 74 74 NNW 18 30 30.53 1034 2.5 4.02335 0 0
1:35 am 01:35 Partly Cloudy 6 -14.5 -3 -19.2 68 68 NNW 17 28 30.53 1034 7 11.26538 0 0
1:55 am 01:55 Clear 5 -14.8 -3 -19.6 67 67 NNW 15 24 30.53 1034 10 16.0934 0 0
2:15 am 02:15 Clear 5 -15 -4 -20 66 66 NNW 20 31 30.53 1034 7 11.26538 0 0
2:35 am 02:35 Clear 4 -15.3 -4 -20.1 67 67 NNW 18 30 30.56 1035 10 16.0934 0 0
2:55 am 02:55 Clear 4 -15.5 -5 -20.6 65 65 N 18 30 30.56 1035 10 16.0934 0 0
3:15 am 03:15 Clear 4 -15.5 -5 -20.8 64 64 NNW 20 31 30.56 1035 10 16.0934 0 0
3:35 am 03:35 Clear 4 -15.8 -7 -21.5 62 62 NNW 17 28 30.62 1037 10 16.0934 0 0
3:55 am 03:55 Clear 3 -16 -7 -21.8 61 61 NNW 14 22 30.62 1037 10 16.0934 0 0
4:15 am 04:15 Clear 3 -16.2 -7 -21.7 63 63 NNW 18 30 30.62 1037 10 16.0934 0 0
4:35 am 04:35 Clear 3 -16.3 -8 -22 62 62 NNW 16 26 30.62 1037 10 16.0934 0 0
4:55 am 04:55 Clear 2 -16.5 -8 -22.1 62 62 NNW 14 22 30.62 1037 10 16.0934 0 0
5:15 am 05:15 Clear 2 -16.7 -8 -22.3 62 62 NNW 13 20 30.65 1038 10 16.0934 0 0
5:35 am 05:35 Clear 1 -17 -9 -22.6 62 62 NNW 10 17 30.65 1038 10 16.0934 0 0
5:55 am 05:55 Clear 1 -17.2 -9 -23 61 61 NNW 13 20 30.65 1038 10 16.0934 0 0
6:15 am 06:15 Clear 1 -17.5 -10 -23.4 60 60 NNW 13 20 30.65 1038 10 16.0934 0 0
6:35 am 06:35 Clear 0 -17.7 -10 -23.5 61 61 NNW 10 17 30.68 1039 10 16.0934 0 0
6:55 am 06:55 Clear 0 -18 -10 -23.5 62 62 NNW 10 17 30.68 1039 10 16.0934 0 0
7:15 am 07:15 Clear 0 -18 -10 -23.5 62 62 N 12 19 30.71 1040 10 16.0934 0 0
7:35 am 07:35 Clear 0 -18 -10 -23.5 62 62 NNW 14 22 30.71 1040 10 16.0934 0 0
7:55 am 07:55 Clear -1 -18.1 -10 -23.5 63 63 NNW 10 17 30.74 1041 10 16.0934 0 0
8:15 am 08:15 Sunny -1 -18.3 -10 -23.5 64 64 NNW 8 13 30.74 1041 10 16.0934 0 0
8:35 am 08:35 Sunny -2 -18.7 -10 -23.5 66 66 WNW 6 9 30.77 1042 10 16.0934 0 0
8:55 am 08:55 Sunny -1 -18.4 -10 -23.2 66 66 WNW 9 15 30.77 1042 10 16.0934 0 0
9:15 am 09:15 Sunny 0 -17.9 -9 -22.9 65 65 WNW 6 9 30.77 1042 10 16.0934 0 0
9:35 am 09:35 Sunny 1 -17.1 -9 -22.5 63 63 NW 7 11 30.77 1042 10 16.0934 0 0
9:55 am 09:55 Sunny 2 -16.5 -8 -22.1 62 62 WNW 8 13 30.77 1042 10 16.0934 0 0
10:15 am 10:15 Sunny 3 -16.2 -7 -21.9 62 62 WNW 5 7 30.77 1042 10 16.0934 0 0
10:35 am 10:35 Sunny 4 -15.6 -7 -21.9 59 59 WNW 7 11 30.77 1042 10 16.0934 0 0
10:55 am 10:55 Sunny 5 -15.2 -7 -21.4 59 59 WNW 8 13 30.77 1042 10 16.0934 0 0
11:15 am 11:15 Sunny 5 -14.8 -6 -21.3 58 58 WNW 8 13 30.77 1042 10 16.0934 0 0
11:35 am 11:35 Sunny 6 -14.2 -6 -21.1 56 56 NW 9 15 30.77 1042 10 16.0934 0 0
11:55 am 11:55 Sunny 7 -13.8 -6 -21 55 55 NW 10 17 30.74 1041 10 16.0934 0 0
12:15 pm 12:15 Sunny 8 -13.5 -6 -21.3 52 52 NW 8 13 30.71 1040 10 16.0934 0 0
12:35 pm 12:35 Sunny 8 -13.2 -7 -21.6 50 50 NNW 7 11 30.71 1040 10 16.0934 0 0
12:55 pm 12:55 Sunny 9 -13 -7 -21.7 48 48 NNW 7 11 30.71 1040 10 16.0934 0 0
1:15 pm 13:15 Sunny 9 -12.7 -6 -21.1 50 50 NW 5 7 30.71 1040 10 16.0934 0 0
1:35 pm 13:35 Sunny 10 -12.5 -5 -20.8 50 50 N 5 7 30.71 1040 10 16.0934 0 0
1:55 pm 13:55 Sunny 10 -12.3 -5 -20.3 52 52 NW 5 7 30.71 1040 10 16.0934 0 0
2:15 pm 14:15 Sunny 10 -12.2 -4 -20 53 53 NNE 3 6 30.71 1040 10 16.0934 0 0
2:35 pm 14:35 Sunny 10 -12 -3 -19.7 53 53 NE 5 7 30.71 1040 10 16.0934 0 0
2:55 pm 14:55 Sunny 11 -11.8 -4 -20.1 50 50 Calm 30.71 1040 10 16.0934 0 0
3:15 pm 15:15 Sunny 11 -11.7 -4 -20.2 50 50 Calm 30.71 1040 10 16.0934 0 0
3:35 pm 15:35 Sunny 11 -11.6 -4 -20.1 50 50 Calm 30.71 1040 10 16.0934 0 0
3:55 pm 15:55 Sunny 11 -11.7 -5 -20.3 49 49 Calm 30.71 1040 10 16.0934 0 0
4:15 pm 16:15 Sunny 11 -11.8 -4 -20.2 50 50 Calm 30.71 1040 10 16.0934 0 0
4:35 pm 16:35 Sunny 11 -11.9 -4 -20.1 51 51 Calm 30.74 1041 10 16.0934 0 0
4:55 pm 16:55 Sunny 10 -12.2 -4 -20 53 53 Calm 30.74 1041 10 16.0934 0 0
5:15 pm 17:15 Sunny 10 -12.1 -4 -20.1 52 52 Calm 30.74 1041 10 16.0934 0 0
5:35 pm 17:35 Clear 9 -12.7 -1 -18.6 62 62 Calm 30.74 1041 10 16.0934 0 0
5:55 pm 17:55 Mostly Cloudy 9 -12.8 -3 -19.4 58 58 Calm 30.74 1041 10 16.0934 0 0
6:15 pm 18:15 Cloudy 10 -12.2 -1 -18.1 62 62 Calm 30.74 1041 10 16.0934 0 0
6:35 pm 18:35 Cloudy 10 -12.5 0 -18 64 64 Calm 30.74 1041 10 16.0934 0 0
6:55 pm 18:55 Cloudy 10 -12.1 -3 -19.2 56 56 Calm 30.77 1042 10 16.0934 0 0
7:15 pm 19:15 Cloudy 10 -12 -3 -19.2 55 55 Calm 30.77 1042 10 16.0934 0 0
7:35 pm 19:35 Cloudy 10 -12 -3 -19.3 55 55 Calm 30.77 1042 10 16.0934 0 0
7:55 pm 19:55 Cloudy 10 -12 -4 -20 52 52 Calm 30.74 1041 10 16.0934 0 0
8:15 pm 20:15 Cloudy 10 -12.1 -3 -19.2 56 56 ENE 3 6 30.74 1041 10 16.0934 0 0
8:35 pm 20:35 Cloudy 9 -12.6 -1 -18.5 62 62 ENE 3 6 30.77 1042 10 16.0934 0 0
8:55 pm 20:55 Cloudy 9 -12.9 -1 -18.6 63 63 Calm 30.77 1042 10 16.0934 0 0
9:15 pm 21:15 Cloudy 8 -13.5 -1 -18.5 66 66 Calm 30.77 1042 10 16.0934 0 0
9:35 pm 21:35 Cloudy 8 -13.2 -1 -18.6 64 64 Calm 30.77 1042 10 16.0934 0 0
9:55 pm 21:55 Cloudy 9 -13 0 -18 66 66 Calm 30.77 1042 10 16.0934 0 0
10:15 pm 22:15 Cloudy 9 -13 -1 -18.1 66 66 Calm 30.83 1044 10 16.0934 0 0
10:35 pm 22:35 Cloudy 9 -12.6 0 -17.9 65 65 Calm 30.83 1044 10 16.0934 0 0
10:55 pm 22:55 Mostly Cloudy 9 -12.7 -2 -18.8 61 61 Calm 30.83 1044 10 16.0934 0 0
11:15 pm 23:15 Mostly Cloudy 8 -13.1 -1 -18.1 66 66 Calm 30.83 1044 10 16.0934 0 0
11:35 pm 23:35 Mostly Cloudy 8 -13.2 -1 -18.2 66 66 Calm 30.83 1044 10 16.0934 0 0
11:55 pm 23:55 Partly Cloudy 7 -13.9 -1 -18.5 68 68 Calm 30.83 1044 10 16.0934 0 0

Powered by AerisWeather